Change the Weather History Date:

Tuesday, July 8, 2014

  Actual Average Record
Temperature  
Mean Temperature 69 °F -  
Max Temperature 77 °F 80 °F 93 °F (2000)
Min Temperature 63 °F 62 °F 51 °F (2004)
Cooling Degree Days 4    
Growing Degree Days 19 (Base 50)    
Moisture  
Dew Point 55 °F    
Average Humidity 64    
Maximum Humidity 84    
Minimum Humidity 44    
Precipitation  
Precipitation 0.00 in - - ()
Sea Level Pressure  
Sea Level Pressure 29.78 in    
Wind  
Wind Speed 12 mph (WNW)    
Max Wind Speed 21 mph    
Max Gust Speed 30 mph    
Visibility 10 miles    
Events      
Averages and records for this station are not official NWS values.
T = Trace of Precipitation, MM = Missing Value Source: NWS Daily Summary

Daily Weather History Graph

Daily Weather History Graph

Search for Another Location

Airport or City:

Trip Planner

Search our weather history database for the weather conditions in past years. The results will help you decide how hot, cold, wet, or windy it might be!

Date:

Astronomy

Jul. 08, 2014 Rise Set
Actual Time 5:36 AM CDT 9:01 PM CDT
Civil Twilight 4:59 AM CDT 9:37 PM CDT
Nautical Twilight 4:12 AM CDT 10:25 PM CDT
Astronomical Twilight 3:11 AM CDT 11:25 PM CDT
Moon 5:04 PM CDT (7/8) 2:15 AM CDT (7/8)
Length of Visible Light 16h 37m
Length of Day
15h 24m
Waxing Gibbous, 81% of the Moon is Illuminated
Jul 8
Waxing Gibbous
Jul 12
Full
Jul 18
Last Quarter
Jul 26
New
Aug 3
First Quarter

Hourly Weather History & Observations

Time (CDT) Temp. Dew Point Humidity Pressure Visibility Wind Dir Wind Speed Gust Speed Precip Events Conditions
12:53 AM 66.0 °F 60.1 °F 81% 29.64 in 10.0 mi WNW 10.4 mph - N/A   Partly Cloudy
1:53 AM 64.0 °F 57.9 °F 80% 29.68 in 10.0 mi West 8.1 mph - N/A   Clear
2:53 AM 64.0 °F 57.9 °F 80% 29.69 in 10.0 mi WNW 9.2 mph - N/A   Clear
3:53 AM 63.0 °F 57.9 °F 84% 29.69 in 10.0 mi West 8.1 mph - N/A   Mostly Cloudy
4:53 AM 63.0 °F 57.9 °F 84% 29.70 in 10.0 mi West 5.8 mph - N/A   Mostly Cloudy
5:53 AM 63.0 °F 57.0 °F 81% 29.72 in 10.0 mi WNW 8.1 mph - N/A   Clear
6:53 AM 64.0 °F 57.9 °F 80% 29.73 in 10.0 mi WNW 13.8 mph 20.7 mph N/A   Clear
7:53 AM 64.9 °F 57.0 °F 75% 29.75 in 10.0 mi NW 12.7 mph 21.9 mph N/A   Clear
8:53 AM 66.9 °F 57.9 °F 73% 29.76 in 10.0 mi NW 12.7 mph 20.7 mph N/A   Clear
9:53 AM 70.0 °F 57.9 °F 65% 29.77 in 10.0 mi NW 13.8 mph 24.2 mph N/A   Partly Cloudy
10:53 AM 72.0 °F 55.9 °F 57% 29.77 in 10.0 mi WNW 15.0 mph 21.9 mph N/A   Clear
11:53 AM 72.0 °F 55.9 °F 57% 29.78 in 10.0 mi NW 19.6 mph 28.8 mph N/A   Scattered Clouds
12:53 PM 73.9 °F 54.0 °F 50% 29.79 in 10.0 mi WNW 18.4 mph 26.5 mph N/A   Mostly Cloudy
1:53 PM 73.9 °F 55.9 °F 53% 29.79 in 10.0 mi WNW 20.7 mph 26.5 mph N/A   Scattered Clouds
2:53 PM 73.9 °F 54.0 °F 50% 29.80 in 10.0 mi WNW 18.4 mph 29.9 mph N/A   Mostly Cloudy
4:53 PM 75.9 °F 53.1 °F 45% 29.83 in 10.0 mi WNW 13.8 mph 24.2 mph N/A   Partly Cloudy
5:53 PM 75.0 °F 52.0 °F 44% 29.83 in 10.0 mi NW 20.7 mph 26.5 mph N/A   Clear
7:53 PM 73.0 °F 51.1 °F 46% 29.85 in 10.0 mi NW 12.7 mph 20.7 mph N/A   Mostly Cloudy
8:53 PM 70.0 °F 51.1 °F 51% 29.86 in 10.0 mi NW 9.2 mph - N/A   Scattered Clouds
9:53 PM 68.0 °F 52.0 °F 56% 29.88 in 10.0 mi NNW 9.2 mph - N/A   Partly Cloudy
10:53 PM 66.9 °F 52.0 °F 59% 29.89 in 10.0 mi WNW 6.9 mph - N/A   Clear
11:53 PM 64.0 °F 53.1 °F 67% 29.90 in 10.0 mi NW 8.1 mph - N/A   Partly Cloudy